Location: Brusselsch Zeekanaal
(50.8667°N, 4.3667°E)
Time: 01:09:40
(UTC+00:00)

USA 267 - Pass Details

Date: 08 November 2025
Orbit: 1100 x 1108 km, 123.0° (Epoch: 21 November)

Event Time Altitude Azimuth Distance (km) Brightness Sun altitude
Rises 04:54:17 0° 64° (ENE) 3,924 7.2 -17.8°
Reaches altitude 10° 04:56:47 10° 61° (ENE) 2,964 6.4 -17.4°
Maximum altitude 05:03:14 65° 342° (NNW) 1,204 3.3 -16.4°
Enters shadow 05:07:39 22° 267° (W) 2,214 4.2 -15.7°
